{"data":{"norad_id":69157,"intl_designator":"2026-111K","name":"STARLINK-37353","alt_names":[],"object_type":"PAYLOAD","status":"ACTIVE","operator":null,"country":"US","launch_date":"2026-05-21","launch_site_code":"AFETR","launch_vehicle":null,"mission":null,"orbit_class":"UNKNOWN","rcs_meters":null,"size_class":null,"mass_kg":null,"dimensions":null,"purposes":["comms"],"wikipedia_slug":null,"has_3d_model":false,"image_url":null,"decayed_at":null,"tle_current":{"epoch":"2026-09-20T03:41:14.462304Z","epoch_age_seconds":53103,"freshness":"FRESH","line1":"1 69157U 26111K   26263.15363961  .00013800  00000+0  41879-3 0  9995","line2":"2 69157  53.1575  67.4710 0001176  78.4514 281.6621 15.34401184 18843","mean_motion":15.34401184,"eccentricity":0.0001176,"inclination_deg":53.1575,"raan_deg":67.471,"arg_perigee_deg":78.4514,"mean_anomaly_deg":281.6621,"bstar":0.00041879,"rev_number":1884,"period_min":93.847685664977,"perigee_km":461.89523871345,"apogee_km":463.50420351025,"semimajor_km":6840.8367211119,"source":"CELESTRAK","updated_at":"2026-09-20T09:00:44.091184Z"}}}